• In Russia
  • List of Countries
  • For 7 days
  • Water Temperature
  • Satellite Maps
  • Weather Map
  • Weather Widgets
  • user-avatar
    Login

    Hourly Weather Graz

    Today, 28 June, Wednesday

    Time Temperature Precipitation Wind Pressure Humidity
    00:00 +16°C° 0 mm 1 mps 718 mmHg 85%
    01:00 +18°C° 0 mm 1 mps 718 mmHg 86%
    02:00 +16°C° 0 mm 1 mps 717 mmHg 86%
    03:00 +16°C° 0 mm 1 mps 717 mmHg 86%
    04:00 +16°C° 0 mm 1 mps 717 mmHg 87%
    05:00 +19°C° 0 mm 1 mps 717 mmHg 81%
    06:00 +20°C° 0 mm 2 mps 716 mmHg 74%
    07:00 +23°C° 0 mm 2 mps 716 mmHg 68%
    08:00 +25°C° 0 mm 2 mps 716 mmHg 63%
    09:00 +27°C° 0 mm 3 mps 716 mmHg 59%
    10:00 +28°C° 0 mm 4 mps 716 mmHg 54%
    11:00 +29°C° 0 mm 4 mps 715 mmHg 51%
    12:00 +30°C° 0 mm 5 mps 715 mmHg 49%
    13:00 +32°C° 0 mm 5 mps 715 mmHg 47%
    14:00 +30°C° 0.1 mm 5 mps 715 mmHg 50%
    15:00 +29°C° 0.1 mm 5 mps 714 mmHg 53%
    16:00 +28°C° 0.1 mm 4 mps 714 mmHg 57%
    17:00 +26°C° 1.5 mm 4 mps 714 mmHg 68%
    18:00 +24°C° 1.5 mm 3 mps 713 mmHg 80%
    19:00 +20°C° 1.5 mm 2 mps 713 mmHg 92%
    20:00 +19°C° 0.7 mm 2 mps 713 mmHg 93%
    21:00 +19°C° 0.7 mm 2 mps 713 mmHg 95%
    22:00 +18°C° 0.7 mm 2 mps 713 mmHg 96%
    23:00 +18°C° 0.1 mm 2 mps 712 mmHg 96%

    Tomorrow, 29 June, Thursday

    Time Temperature Precipitation Wind Pressure Humidity
    00:00 +18°C° 0.1 mm 2 mps 712 mmHg 96%
    01:00 +18°C° 0.1 mm 2 mps 711 mmHg 97%
    02:00 +18°C° 0.1 mm 2 mps 711 mmHg 97%
    03:00 +17°C° 0.1 mm 2 mps 711 mmHg 98%
    04:00 +17°C° 0.1 mm 2 mps 711 mmHg 98%
    05:00 +18°C° 0 mm 2 mps 711 mmHg 95%
    06:00 +19°C° 0 mm 3 mps 711 mmHg 93%
    07:00 +19°C° 0 mm 3 mps 711 mmHg 90%
    08:00 +21°C° 0 mm 3 mps 712 mmHg 79%
    09:00 +22°C° 0 mm 4 mps 712 mmHg 69%
    10:00 +25°C° 0 mm 4 mps 713 mmHg 58%
    11:00 +25°C° 0.3 mm 5 mps 713 mmHg 59%
    12:00 +25°C° 0.3 mm 5 mps 714 mmHg 59%
    13:00 +26°C° 0.3 mm 5 mps 714 mmHg 60%
    14:00 +26°C° 0.3 mm 5 mps 714 mmHg 59%
    15:00 +26°C° 0.3 mm 5 mps 714 mmHg 59%
    16:00 +26°C° 0.3 mm 5 mps 714 mmHg 59%
    17:00 +23°C° 0.1 mm 4 mps 714 mmHg 63%
    18:00 +22°C° 0.1 mm 3 mps 714 mmHg 67%
    19:00 +21°C° 0.1 mm 3 mps 715 mmHg 71%
    20:00 +19°C° 0 mm 2 mps 715 mmHg 76%
    21:00 +17°C° 0 mm 2 mps 715 mmHg 80%
    22:00 +15°C° 0 mm 2 mps 715 mmHg 85%
    23:00 +14°C° 0 mm 2 mps 715 mmHg 86%

    Day after tomorrow, 30 June, Friday

    Time Temperature Precipitation Wind Pressure Humidity
    00:00 +14°C° 0 mm 1 mps 716 mmHg 88%
    01:00 +13°C° 0 mm 1 mps 716 mmHg 89%
    02:00 +13°C° 0 mm 1 mps 716 mmHg 90%
    03:00 +13°C° 0 mm 1 mps 716 mmHg 91%
    04:00 +13°C° 0 mm 1 mps 716 mmHg 93%
    05:00 +15°C° 0 mm 1 mps 717 mmHg 87%
    06:00 +17°C° 0 mm 2 mps 717 mmHg 82%
    07:00 +19°C° 0 mm 2 mps 718 mmHg 77%
    08:00 +20°C° 0.1 mm 2 mps 718 mmHg 70%
    09:00 +22°C° 0.1 mm 3 mps 719 mmHg 62%
    10:00 +23°C° 0.1 mm 4 mps 719 mmHg 55%
    11:00 +23°C° 0.2 mm 4 mps 719 mmHg 53%
    12:00 +25°C° 0.2 mm 5 mps 720 mmHg 51%
    13:00 +25°C° 0.2 mm 5 mps 720 mmHg 50%
    14:00 +25°C° 0.1 mm 5 mps 720 mmHg 49%
    15:00 +25°C° 0.1 mm 4 mps 720 mmHg 48%
    16:00 +23°C° 0.1 mm 4 mps 719 mmHg 48%
    17:00 +22°C° 0 mm 4 mps 719 mmHg 54%
    18:00 +21°C° 0 mm 3 mps 719 mmHg 59%
    19:00 +19°C° 0 mm 3 mps 719 mmHg 65%
    20:00 +18°C° 0 mm 2 mps 719 mmHg 70%
    21:00 +17°C° 0 mm 2 mps 719 mmHg 74%
    22:00 +16°C° 0 mm 2 mps 719 mmHg 79%
    23:00 +15°C° 0.1 mm 2 mps 719 mmHg 82%

    1 July, Saturday

    Time Temperature Precipitation Wind Pressure Humidity
    00:00 +15°C° 0.1 mm 1 mps 719 mmHg 85%
    01:00 +15°C° 0.1 mm 1 mps 719 mmHg 89%
    02:00 +15°C° 0.3 mm 1 mps 719 mmHg 91%
    03:00 +14°C° 0.3 mm 1 mps 719 mmHg 92%
    04:00 +14°C° 0.3 mm 1 mps 719 mmHg 94%
    05:00 +15°C° 0.5 mm 1 mps 719 mmHg 93%
    06:00 +15°C° 0.5 mm 1 mps 719 mmHg 92%
    07:00 +16°C° 0.5 mm 1 mps 720 mmHg 90%
    08:00 +19°C° 0.3 mm 1 mps 720 mmHg 80%
    09:00 +21°C° 0.3 mm 1 mps 720 mmHg 70%
    10:00 +22°C° 0.3 mm 1 mps 721 mmHg 59%
    11:00 +23°C° 0.3 mm 1 mps 721 mmHg 58%
    12:00 +23°C° 0.3 mm 2 mps 721 mmHg 57%
    13:00 +24°C° 0.3 mm 2 mps 721 mmHg 56%
    14:00 +23°C° 0.7 mm 2 mps 721 mmHg 62%
    15:00 +23°C° 0.7 mm 2 mps 720 mmHg 68%
    16:00 +21°C° 0.7 mm 2 mps 720 mmHg 73%
    17:00 +21°C° 0.6 mm 1 mps 720 mmHg 78%
    18:00 +20°C° 0.6 mm 1 mps 720 mmHg 82%
    19:00 +19°C° 0.6 mm 1 mps 721 mmHg 87%
    20:00 +18°C° 1.1 mm 1 mps 721 mmHg 89%
    21:00 +16°C° 1.1 mm 1 mps 721 mmHg 92%
    22:00 +15°C° 1.1 mm 2 mps 722 mmHg 94%
    23:00 +14°C° 0.5 mm 2 mps 722 mmHg 94%

    2 July, Sunday

    Time Temperature Precipitation Wind Pressure Humidity
    00:00 +14°C° 0.5 mm 2 mps 722 mmHg 95%
    01:00 +14°C° 0.5 mm 2 mps 722 mmHg 95%
    02:00 +14°C° 0 mm 2 mps 722 mmHg 95%
    03:00 +13°C° 0 mm 2 mps 722 mmHg 94%
    04:00 +13°C° 0 mm 1 mps 723 mmHg 94%
    05:00 +14°C° 0 mm 2 mps 723 mmHg 91%
    06:00 +15°C° 0 mm 2 mps 724 mmHg 88%
    07:00 +16°C° 0 mm 2 mps 724 mmHg 85%
    08:00 +17°C° 0.1 mm 2 mps 725 mmHg 77%
    09:00 +18°C° 0.1 mm 2 mps 725 mmHg 70%
    10:00 +19°C° 0.1 mm 2 mps 725 mmHg 62%
    11:00 +20°C° 0.1 mm 2 mps 725 mmHg 55%
    12:00 +21°C° 0.1 mm 2 mps 725 mmHg 49%
    13:00 +22°C° 0.1 mm 3 mps 725 mmHg 43%
    14:00 +23°C° 0 mm 2 mps 725 mmHg 42%
    15:00 +24°C° 0 mm 2 mps 725 mmHg 42%
    16:00 +24°C° 0 mm 2 mps 725 mmHg 41%
    17:00 +23°C° 0 mm 2 mps 725 mmHg 50%
    18:00 +20°C° 0 mm 2 mps 725 mmHg 59%
    19:00 +19°C° 0 mm 2 mps 725 mmHg 68%
    20:00 +18°C° 0 mm 1 mps 725 mmHg 74%
    21:00 +16°C° 0 mm 1 mps 726 mmHg 79%
    22:00 +14°C° 0 mm 1 mps 726 mmHg 85%
    23:00 +13°C° 0 mm 1 mps 726 mmHg 87%

    3 July, Monday

    Time Temperature Precipitation Wind Pressure Humidity
    00:00 +13°C° 0 mm 1 mps 726 mmHg 90%
    01:00 +12°C° 0 mm 1 mps 726 mmHg 92%
    02:00 +12°C° 0 mm 1 mps 726 mmHg 92%
    03:00 +12°C° 0 mm 1 mps 726 mmHg 93%
    04:00 +12°C° 0 mm 1 mps 726 mmHg 93%
    05:00 +14°C° 0 mm 1 mps 726 mmHg 87%
    06:00 +16°C° 0 mm 1 mps 726 mmHg 81%
    07:00 +19°C° 0 mm 1 mps 727 mmHg 76%
    08:00 +20°C° 0 mm 1 mps 727 mmHg 70%
    09:00 +20°C° 0 mm 2 mps 727 mmHg 63%
    10:00 +23°C° 0 mm 2 mps 727 mmHg 57%
    11:00 +24°C° 0.1 mm 2 mps 727 mmHg 54%
    12:00 +24°C° 0.1 mm 2 mps 726 mmHg 50%
    13:00 +25°C° 0.1 mm 2 mps 726 mmHg 47%
    14:00 +25°C° 0.1 mm 2 mps 726 mmHg 48%
    15:00 +25°C° 0.1 mm 2 mps 726 mmHg 49%
    16:00 +25°C° 0.1 mm 1 mps 726 mmHg 50%
    17:00 +23°C° 0.3 mm 1 mps 726 mmHg 60%
    18:00 +22°C° 0.3 mm 1 mps 726 mmHg 69%
    19:00 +20°C° 0.3 mm 1 mps 726 mmHg 79%
    20:00 +18°C° 0.3 mm 1 mps 726 mmHg 83%
    21:00 +16°C° 0.3 mm 1 mps 726 mmHg 88%
    22:00 +14°C° 0.3 mm 1 mps 726 mmHg 92%
    23:00 +13°C° 0 mm 1 mps 726 mmHg 92%
    Show more